Overview Statistics Trail Chart Weather Telemetry Raw packets
 

This is the latest recevied weather packets stored in our database for station/object AJ1L. If no packets are shown the sender has not sent any weather packets the latest 10 day(s).

<< 27 28 29 30 31 >>
Time Temp. Humidity Pressure Rain* Wind** Luminosity Snow
1787748201 20° C 82% 1017.6 hPa 0 mm - - -
1787746202 17.78° C 88% 1017.5 hPa 0 mm - - -
1787745203 17.22° C 90% 1017.5 hPa 0 mm - - -
1787744202 16.67° C 91% 1017.3 hPa 0 mm - - -
1787743202 16.11° C 92% 1017.2 hPa 0 mm - - -
1787742201 16.11° C 92% 1017.1 hPa 0 mm - - -
1787741204 16.11° C 92% 1016.9 hPa 0 mm - - -
1787740212 15.56° C 92% 1016.6 hPa 0 mm - - -
1787739201 15.56° C 92% 1016.5 hPa 0 mm - - -
1787738200 15.56° C 90% 1016.4 hPa 0 mm - - -
1787737200 16.11° C 90% 1016.3 hPa 0 mm - - -
1787736200 16.11° C 90% 1016.2 hPa 0 mm - - -
1787735203 16.67° C 89% 1016 hPa 0 mm - - -
1787734202 16.67° C 89% 1015.9 hPa 0 mm - - -
1787733200 16.67° C 89% 1015.8 hPa 0 mm - - -
1787732202 16.67° C 89% 1015.8 hPa 0 mm - - -
1787731200 16.67° C 89% 1015.8 hPa 0 mm - - -
1787730201 16.67° C 89% 1015.8 hPa 0 mm - - -
1787729206 16.67° C 89% 1015.8 hPa 0 mm - - -
1787728201 16.67° C 89% 1015.6 hPa 0 mm - - -
1787727203 16.67° C 89% 1015.5 hPa 0 mm - - -
1787726200 16.67° C 89% 1015.5 hPa 0 mm - - -
1787725200 17.22° C 88% 1015.4 hPa 0 mm - - -
1787724202 17.22° C 88% 1015.3 hPa 0 mm - - -
1787723202 17.22° C 88% 1015.3 hPa 0 mm - - -

* Rain latest hour (hover to see other rain measurements)
** Current wind speed in m/s (hover to see current wind gust speed)